Time,TemperatureF,DewpointF,PressureIn,WindDirection,WindDirectionDegrees,WindSpeedMPH,WindSpeedGustMPH,Humidity,HourlyPrecipIn,Conditions,Clouds,dailyrainin,SolarRadiationWatts/m^2,SoftwareType,DateUTC
2013-07-02 00:01:00,59.0,58.0,30.09,NNE,31,11.0,17.0,96,0.00,,,0.00,0.000000,,2013-07-02 07:01:00,
2013-07-02 00:11:00,59.0,58.0,30.09,North,7,13.0,17.0,96,0.00,,,0.00,0.000000,,2013-07-02 07:11:00,
2013-07-02 00:22:00,59.0,58.0,30.09,NNE,17,13.0,18.0,96,0.00,,,0.00,0.000000,,2013-07-02 07:22:00,
2013-07-02 00:33:00,59.0,58.0,30.09,NNE,17,13.0,18.0,96,0.00,,,0.00,0.000000,,2013-07-02 07:33:00,
2013-07-02 00:44:00,59.0,58.0,30.08,NNE,28,14.0,21.0,96,0.00,,,0.00,0.000000,,2013-07-02 07:44:00,
2013-07-02 00:52:00,59.0,58.0,30.07,NNE,13,13.0,19.0,96,0.00,,,0.00,0.000000,,2013-07-02 07:52:00,
2013-07-02 01:02:00,59.0,58.0,30.07,NNE,13,13.0,19.0,96,0.00,,,0.00,0.000000,,2013-07-02 08:02:00,
2013-07-02 01:12:00,59.0,58.0,30.07,North,11,12.0,18.0,96,0.00,,,0.00,0.000000,,2013-07-02 08:12:00,
2013-07-02 01:22:00,59.0,58.0,30.08,North,360,13.0,19.0,96,0.00,,,0.00,0.000000,,2013-07-02 08:22:00,
2013-07-02 01:33:00,59.0,58.0,30.08,North,360,13.0,19.0,96,0.00,,,0.00,0.000000,,2013-07-02 08:33:00,
2013-07-02 01:44:00,58.0,57.0,30.08,North,10,15.0,19.0,96,0.00,,,0.00,0.000000,,2013-07-02 08:44:00,
2013-07-02 01:52:00,58.0,57.0,30.07,North,6,11.0,16.0,96,0.00,,,0.00,0.000000,,2013-07-02 08:52:00,
2013-07-02 02:01:00,58.0,57.0,30.07,North,6,11.0,16.0,96,0.00,,,0.00,0.000000,,2013-07-02 09:01:00,
2013-07-02 02:11:00,58.0,57.0,30.07,North,4,9.0,16.0,96,0.00,,,0.00,0.000000,,2013-07-02 09:11:00,
2013-07-02 02:22:00,58.0,57.0,30.07,NNE,24,11.0,17.0,96,0.00,,,0.00,0.000000,,2013-07-02 09:22:00,
2013-07-02 02:33:00,58.0,57.0,30.07,NNE,24,11.0,17.0,96,0.00,,,0.00,0.000000,,2013-07-02 09:33:00,
2013-07-02 02:43:00,58.0,57.0,30.07,North,4,11.0,16.0,96,0.00,,,0.00,0.000000,,2013-07-02 09:43:00,
2013-07-02 02:52:00,58.0,57.0,30.06,NNE,22,10.0,17.0,96,0.00,,,0.00,0.000000,,2013-07-02 09:52:00,
2013-07-02 03:01:00,58.0,57.0,30.06,NNE,22,10.0,17.0,96,0.00,,,0.00,0.000000,,2013-07-02 10:01:00,
2013-07-02 03:11:00,58.0,57.0,30.06,NNE,13,10.0,15.0,96,0.00,,,0.00,0.000000,,2013-07-02 10:11:00,
2013-07-02 03:22:00,58.0,57.0,30.06,North,4,10.0,19.0,96,0.00,,,0.00,0.000000,,2013-07-02 10:22:00,
2013-07-02 03:33:00,58.0,57.0,30.06,North,4,10.0,19.0,96,0.00,,,0.00,0.000000,,2013-07-02 10:33:00,
2013-07-02 03:43:00,58.0,57.0,30.07,NNE,15,13.0,18.0,96,0.00,,,0.00,0.000000,,2013-07-02 10:43:00,
2013-07-02 03:52:00,58.0,57.0,30.07,North,11,10.0,16.0,96,0.00,,,0.00,0.000000,,2013-07-02 10:52:00,
2013-07-02 04:01:00,58.0,57.0,30.07,North,11,10.0,16.0,96,0.00,,,0.00,0.000000,,2013-07-02 11:01:00,
2013-07-02 04:11:00,58.0,57.0,30.07,NNE,13,7.0,10.0,96,0.00,,,0.00,0.000000,,2013-07-02 11:11:00,
2013-07-02 04:22:00,58.0,57.0,30.07,North,11,8.0,10.0,96,0.00,,,0.00,0.000000,,2013-07-02 11:22:00,
2013-07-02 04:33:00,58.0,57.0,30.07,North,11,8.0,10.0,96,0.00,,,0.00,0.000000,,2013-07-02 11:33:00,
2013-07-02 04:42:00,58.0,57.0,30.07,NNE,13,8.0,14.0,96,0.00,,,0.00,0.000000,,2013-07-02 11:42:00,
2013-07-02 04:52:00,58.0,57.0,30.08,North,5,8.0,13.0,96,0.00,,,0.00,0.000000,,2013-07-02 11:52:00,
2013-07-02 05:01:00,58.0,57.0,30.08,North,5,8.0,13.0,96,0.00,,,0.00,0.000000,,2013-07-02 12:01:00,
2013-07-02 05:11:00,58.0,57.0,30.08,NNE,24,9.0,15.0,96,0.00,,,0.00,0.000000,,2013-07-02 12:11:00,
2013-07-02 05:23:00,58.0,57.0,30.08,North,356,9.0,13.0,96,0.00,,,0.00,0.000000,,2013-07-02 12:23:00,
2013-07-02 05:33:00,58.0,57.0,30.08,North,356,9.0,13.0,96,0.00,,,0.00,0.000000,,2013-07-02 12:33:00,
2013-07-02 05:43:00,58.0,57.0,30.08,North,6,11.0,15.0,96,0.00,,,0.00,0.000000,,2013-07-02 12:43:00,
2013-07-02 05:52:00,58.0,57.0,30.09,NNE,20,11.0,18.0,96,0.00,,,0.00,0.000000,,2013-07-02 12:52:00,
2013-07-02 06:01:00,58.0,57.0,30.09,NNE,20,11.0,18.0,96,0.00,,,0.00,0.000000,,2013-07-02 13:01:00,
2013-07-02 06:11:00,58.0,57.0,30.09,North,9,13.0,18.0,96,0.00,,,0.00,0.000000,,2013-07-02 13:11:00,
2013-07-02 06:21:00,58.0,57.0,30.09,North,9,13.0,18.0,96,0.00,,,0.00,0.000000,,2013-07-02 13:21:00,
2013-07-02 06:34:00,58.0,57.0,30.09,North,5,10.0,16.0,96,0.00,,,0.00,5.000000,,2013-07-02 13:34:00,
2013-07-02 06:43:00,58.0,57.0,30.09,North,5,10.0,16.0,96,0.00,,,0.00,5.000000,,2013-07-02 13:43:00,
2013-07-02 06:52:00,58.0,57.0,30.09,North,5,10.0,16.0,96,0.00,,,0.00,5.000000,,2013-07-02 13:52:00,
2013-07-02 07:01:00,58.0,57.0,30.10,NNE,15,11.0,16.0,96,0.00,,,0.00,16.000000,,2013-07-02 14:01:00,
2013-07-02 07:11:00,58.0,57.0,30.10,North,11,9.0,13.0,96,0.00,,,0.00,26.000000,,2013-07-02 14:11:00,
2013-07-02 07:33:00,58.0,57.0,30.10,NNE,16,12.0,18.0,96,0.00,,,0.00,37.000000,,2013-07-02 14:33:00,
2013-07-02 07:43:00,57.0,56.0,30.10,North,2,10.0,15.0,96,0.00,,,0.00,44.000000,,2013-07-02 14:43:00,
2013-07-02 07:53:00,58.0,57.0,30.10,North,2,14.0,22.0,96,0.00,,,0.00,60.000000,,2013-07-02 14:53:00,
2013-07-02 08:02:00,58.0,57.0,30.10,North,2,14.0,22.0,96,0.00,,,0.00,60.000000,,2013-07-02 15:02:00,
2013-07-02 08:11:00,58.0,57.0,30.10,North,360,10.0,13.0,96,0.00,,,0.00,86.000000,,2013-07-02 15:11:00,
2013-07-02 08:33:00,58.0,57.0,30.10,North,6,9.0,15.0,96,0.00,,,0.00,95.000000,,2013-07-02 15:33:00,
2013-07-02 08:44:00,58.0,57.0,30.11,North,8,9.0,11.0,96,0.00,,,0.00,95.000000,,2013-07-02 15:44:00,
2013-07-02 08:53:00,58.0,57.0,30.11,North,8,9.0,11.0,96,0.00,,,0.00,95.000000,,2013-07-02 15:53:00,
2013-07-02 09:01:00,58.0,57.0,30.10,North,360,8.0,10.0,96,0.00,,,0.00,134.000000,,2013-07-02 16:01:00,
2013-07-02 09:11:00,58.0,57.0,30.10,North,1,10.0,14.0,96,0.00,,,0.00,146.000000,,2013-07-02 16:11:00,
2013-07-02 09:21:00,58.0,57.0,30.10,North,1,10.0,14.0,96,0.00,,,0.00,146.000000,,2013-07-02 16:21:00,
2013-07-02 09:33:00,58.0,57.0,30.10,North,11,9.0,13.0,96,0.00,,,0.00,179.000000,,2013-07-02 16:33:00,
2013-07-02 09:43:00,58.0,57.0,30.09,NNE,13,8.0,11.0,96,0.00,,,0.00,211.000000,,2013-07-02 16:43:00,
2013-07-02 09:52:00,58.0,57.0,30.09,NNE,13,8.0,11.0,96,0.00,,,0.00,211.000000,,2013-07-02 16:52:00,
2013-07-02 10:02:00,58.0,57.0,30.09,NNE,14,10.0,13.0,95,0.00,,,0.00,239.000000,,2013-07-02 17:02:00,
2013-07-02 10:43:00,59.0,58.0,30.10,North,8,11.0,15.0,95,0.00,,,0.00,269.000000,,2013-07-02 17:43:00,
2013-07-02 10:53:00,59.0,58.0,30.10,North,8,11.0,15.0,95,0.00,,,0.00,269.000000,,2013-07-02 17:53:00,
2013-07-02 11:02:00,59.0,57.0,30.11,North,11,13.0,17.0,94,0.00,,,0.00,269.000000,,2013-07-02 18:02:00,
2013-07-02 11:11:00,59.0,57.0,30.11,North,9,13.0,17.0,94,0.00,,,0.00,279.000000,,2013-07-02 18:11:00,
2013-07-02 11:34:00,59.0,57.0,30.11,NNE,19,13.0,19.0,94,0.00,,,0.00,274.000000,,2013-07-02 18:34:00,
2013-07-02 11:43:00,59.0,57.0,30.11,NNE,12,16.0,22.0,94,0.00,,,0.00,322.000000,,2013-07-02 18:43:00,
2013-07-02 11:53:00,59.0,57.0,30.12,NNE,13,14.0,21.0,94,0.00,,,0.00,374.000000,,2013-07-02 18:53:00,
2013-07-02 12:01:00,59.0,57.0,30.12,NNE,13,14.0,21.0,94,0.00,,,0.00,374.000000,,2013-07-02 19:01:00,
2013-07-02 12:11:00,60.0,58.0,30.12,NNE,18,13.0,22.0,94,0.00,,,0.00,457.000000,,2013-07-02 19:11:00,
2013-07-02 12:22:00,60.0,58.0,30.11,North,5,17.0,22.0,93,0.00,,,0.00,512.000000,,2013-07-02 19:22:00,
2013-07-02 12:33:00,60.0,58.0,30.11,North,5,17.0,22.0,93,0.00,,,0.00,512.000000,,2013-07-02 19:33:00,
2013-07-02 12:43:00,60.0,58.0,30.11,North,10,18.0,24.0,92,0.00,,,0.00,548.000000,,2013-07-02 19:43:00,
2013-07-02 12:53:00,60.0,58.0,30.11,North,10,18.0,24.0,92,0.00,,,0.00,548.000000,,2013-07-02 19:53:00,
2013-07-02 13:01:00,61.0,59.0,30.11,North,1,17.0,24.0,92,0.00,,,0.00,647.000000,,2013-07-02 20:01:00,
2013-07-02 13:11:00,61.0,58.0,30.11,North,2,20.0,26.0,90,0.00,,,0.00,601.000000,,2013-07-02 20:11:00,
2013-07-02 13:33:00,62.0,59.0,30.11,North,2,17.0,24.0,90,0.00,,,0.00,591.000000,,2013-07-02 20:33:00,
2013-07-02 13:43:00,62.0,59.0,30.12,North,4,13.0,18.0,89,0.00,,,0.00,893.000000,,2013-07-02 20:43:00,
2013-07-02 13:52:00,63.0,60.0,30.12,North,7,13.0,19.0,89,0.00,,,0.00,912.000000,,2013-07-02 20:52:00,
2013-07-02 14:02:00,63.0,60.0,30.12,North,7,13.0,19.0,89,0.00,,,0.00,912.000000,,2013-07-02 21:02:00,
2013-07-02 14:11:00,63.0,59.0,30.13,North,5,13.0,17.0,88,0.00,,,0.00,664.000000,,2013-07-02 21:11:00,
2013-07-02 14:22:00,63.0,59.0,30.13,North,11,14.0,18.0,88,0.00,,,0.00,875.000000,,2013-07-02 21:22:00,
2013-07-02 14:33:00,63.0,59.0,30.13,North,11,14.0,18.0,88,0.00,,,0.00,875.000000,,2013-07-02 21:33:00,
2013-07-02 14:43:00,63.0,59.0,30.13,North,11,14.0,18.0,88,0.00,,,0.00,875.000000,,2013-07-02 21:43:00,
2013-07-02 14:52:00,64.0,60.0,30.13,North,8,14.0,18.0,87,0.00,,,0.00,874.000000,,2013-07-02 21:52:00,
2013-07-02 15:01:00,64.0,60.0,30.13,North,8,14.0,18.0,87,0.00,,,0.00,874.000000,,2013-07-02 22:01:00,
2013-07-02 15:11:00,64.0,60.0,30.13,North,360,16.0,20.0,86,0.00,,,0.00,863.000000,,2013-07-02 22:11:00,
2013-07-02 15:33:00,64.0,60.0,30.13,North,1,17.0,22.0,86,0.00,,,0.00,849.000000,,2013-07-02 22:33:00,
2013-07-02 15:43:00,64.0,60.0,30.13,NNE,12,15.0,21.0,86,0.00,,,0.00,837.000000,,2013-07-02 22:43:00,
2013-07-02 15:53:00,64.0,60.0,30.12,North,4,15.0,22.0,86,0.00,,,0.00,649.000000,,2013-07-02 22:53:00,
2013-07-02 16:01:00,64.0,60.0,30.12,North,4,15.0,22.0,86,0.00,,,0.00,649.000000,,2013-07-02 23:01:00,
2013-07-02 16:11:00,64.0,60.0,30.12,NNE,17,15.0,21.0,86,0.00,,,0.00,635.000000,,2013-07-02 23:11:00,
2013-07-02 16:22:00,64.0,60.0,30.12,NNE,17,14.0,18.0,87,0.00,,,0.00,802.000000,,2013-07-02 23:22:00,
2013-07-02 16:33:00,64.0,60.0,30.12,NNE,17,14.0,18.0,87,0.00,,,0.00,802.000000,,2013-07-02 23:33:00,
2013-07-02 16:44:00,63.0,59.0,30.11,North,11,14.0,19.0,86,0.00,,,0.00,721.000000,,2013-07-02 23:44:00,
2013-07-02 16:52:00,63.0,59.0,30.12,North,6,13.0,19.0,87,0.00,,,0.00,700.000000,,2013-07-02 23:52:00,
2013-07-02 17:01:00,63.0,59.0,30.12,North,6,13.0,19.0,87,0.00,,,0.00,700.000000,,2013-07-03 00:01:00,
2013-07-02 17:11:00,65.0,60.0,30.12,North,2,15.0,23.0,85,0.00,,,0.00,689.000000,,2013-07-03 00:11:00,
2013-07-02 17:33:00,65.0,61.0,30.11,NNE,23,15.0,22.0,86,0.00,,,0.00,624.000000,,2013-07-03 00:33:00,
2013-07-02 17:44:00,65.0,60.0,30.11,NNE,14,14.0,22.0,85,0.00,,,0.00,642.000000,,2013-07-03 00:44:00,
2013-07-02 17:52:00,65.0,60.0,30.11,NNE,14,14.0,22.0,85,0.00,,,0.00,642.000000,,2013-07-03 00:52:00,
2013-07-02 18:01:00,64.0,59.0,30.11,North,4,17.0,21.0,85,0.00,,,0.00,524.000000,,2013-07-03 01:01:00,
2013-07-02 18:11:00,64.0,59.0,30.11,North,4,17.0,21.0,85,0.00,,,0.00,524.000000,,2013-07-03 01:11:00,
2013-07-02 18:21:00,64.0,59.0,30.11,North,2,17.0,24.0,85,0.00,,,0.00,483.000000,,2013-07-03 01:21:00,
2013-07-02 18:33:00,64.0,60.0,30.10,NNE,22,14.0,26.0,86,0.00,,,0.00,515.000000,,2013-07-03 01:33:00,
2013-07-02 18:42:00,64.0,60.0,30.10,NNE,22,14.0,26.0,86,0.00,,,0.00,515.000000,,2013-07-03 01:42:00,
2013-07-02 18:52:00,64.0,60.0,30.10,North,4,13.0,21.0,86,0.00,,,0.00,459.000000,,2013-07-03 01:52:00,
2013-07-02 19:02:00,64.0,60.0,30.10,North,4,13.0,21.0,86,0.00,,,0.00,459.000000,,2013-07-03 02:02:00,
2013-07-02 19:24:00,63.0,59.0,30.09,North,7,16.0,23.0,86,0.00,,,0.00,348.000000,,2013-07-03 02:24:00,
2013-07-02 19:43:00,62.0,58.0,30.09,NNE,19,17.0,24.0,87,0.00,,,0.00,225.000000,,2013-07-03 02:43:00,
2013-07-02 19:53:00,62.0,58.0,30.09,NNE,19,17.0,24.0,87,0.00,,,0.00,225.000000,,2013-07-03 02:53:00,
2013-07-02 20:02:00,62.0,58.0,30.09,NNE,29,16.0,24.0,88,0.00,,,0.00,190.000000,,2013-07-03 03:02:00,
2013-07-02 20:12:00,61.0,57.0,30.09,NNE,19,16.0,23.0,88,0.00,,,0.00,141.000000,,2013-07-03 03:12:00,
2013-07-02 20:24:00,61.0,58.0,30.09,NNE,13,15.0,24.0,89,0.00,,,0.00,98.000000,,2013-07-03 03:24:00,
2013-07-02 20:34:00,61.0,58.0,30.09,NNE,13,15.0,24.0,89,0.00,,,0.00,98.000000,,2013-07-03 03:34:00,
2013-07-02 20:43:00,60.0,57.0,30.08,NNE,24,15.0,22.0,89,0.00,,,0.00,63.000000,,2013-07-03 03:43:00,
2013-07-02 20:52:00,60.0,57.0,30.08,North,4,14.0,19.0,89,0.00,,,0.00,35.000000,,2013-07-03 03:52:00,
2013-07-02 21:01:00,60.0,57.0,30.08,North,4,14.0,19.0,89,0.00,,,0.00,35.000000,,2013-07-03 04:01:00,
2013-07-02 21:11:00,59.0,56.0,30.09,North,11,14.0,18.0,90,0.00,,,0.00,16.000000,,2013-07-03 04:11:00,
2013-07-02 21:33:00,59.0,56.0,30.10,North,4,11.0,18.0,91,0.00,,,0.00,5.000000,,2013-07-03 04:33:00,
2013-07-02 21:43:00,59.0,56.0,30.10,NNE,19,11.0,19.0,91,0.00,,,0.00,0.000000,,2013-07-03 04:43:00,
2013-07-02 21:52:00,59.0,57.0,30.11,North,2,11.0,17.0,92,0.00,,,0.00,0.000000,,2013-07-03 04:52:00,
2013-07-02 22:01:00,59.0,57.0,30.11,North,2,11.0,17.0,92,0.00,,,0.00,0.000000,,2013-07-03 05:01:00,
2013-07-02 22:11:00,59.0,57.0,30.11,NNE,28,12.0,18.0,92,0.00,,,0.00,0.000000,,2013-07-03 05:11:00,
2013-07-02 22:44:00,59.0,57.0,30.11,North,359,12.0,21.0,93,0.00,,,0.00,0.000000,,2013-07-03 05:44:00,
2013-07-02 22:53:00,59.0,57.0,30.11,NNE,15,13.0,19.0,93,0.00,,,0.00,0.000000,,2013-07-03 05:53:00,
2013-07-02 23:01:00,59.0,57.0,30.11,NNE,15,13.0,19.0,93,0.00,,,0.00,0.000000,,2013-07-03 06:01:00,
2013-07-02 23:12:00,59.0,57.0,30.12,NNE,15,13.0,19.0,93,0.00,,,0.00,0.000000,,2013-07-03 06:12:00,
2013-07-02 23:34:00,59.0,57.0,30.12,NNE,15,13.0,18.0,93,0.00,,,0.00,0.000000,,2013-07-03 06:34:00,
2013-07-02 23:44:00,59.0,57.0,30.12,NNE,18,15.0,24.0,93,0.00,,,0.00,0.000000,,2013-07-03 06:44:00,
2013-07-02 23:52:00,59.0,57.0,30.12,NNE,15,15.0,22.0,93,0.00,,,0.00,0.000000,,2013-07-03 06:52:00,